Flag for U.S.A. Weather past 2 weeks in Montgomery, Alabama, U.S.A.

Now
57 °F

Passing clouds.


Feels Like: 56 °F
Forecast: 57 / 76 °F
Wind: 7 mph from Northeast

Location: Maxwell Air Force Base / Montgomery

Current Time: Apr 27, 2015 at 7:33:46 AM

Latest Report: Apr 27, 2015 at 6:58 AM


Visibility: 10 mi

Pressure: 29.86 "Hg

Humidity: 80%

Dew point: 51 °F

Location of MontgomeryLocation

Historic Weather in Montgomery — Graph

°F

Montgomery temperature yesterday

Maximum temperature yesterday: 86 °F (at 2:58 PM)
Minimum temperature yesterday: 59 °F (at 5:03 AM)
Average temperature yesterday: 72 °F

Past Weeks' High & Low Weather Summary

 TemperatureHumidityPressure
High86 °F (Apr 26, 2:58 PM)100% (Apr 12, 10:03 PM)30.16 "Hg (Apr 12, 10:03 PM)
Low49 °F (Apr 21, 5:58 AM)27% (Apr 23, 7:58 AM)29.53 "Hg (Apr 23, 7:58 AM)
Average68 °F81%29.95 "Hg
* Reported Apr 12 5:58 AM — Apr 27 5:58 AM, Montgomery, Weather by CustomWeather, © 2015

Note: Actual official high and low records may vary slightly from our data, if they occured in-between our weather recording intervals... More about our weather records

Advertising

Montgomery weather history for previous 24 hours

 ConditionsComfort  
Time TempWeatherWind HumidityBarometerVisibility
5:58 AM
Mon, Apr 27
57 °FClear.5 mph82%29.84 "Hg10 mi
4:58 AM58 °FPassing clouds.7 mph81%29.82 "Hg10 mi
3:58 AM59 °FPassing clouds.7 mph82%29.80 "Hg10 mi
2:58 AM61 °FClear.8 mph79%29.78 "Hg10 mi
1:58 AM63 °FClear.6 mph75%29.77 "Hg10 mi
12:58 AM66 °FClear.12 mph79%29.76 "Hg10 mi
11:58 PM
Sun, Apr 26
69 °FPassing clouds.13 mph73%29.76 "Hg10 mi
10:58 PM72 °FClear.8 mph68%29.74 "Hg10 mi
9:58 PM71 °FPassing clouds.9 mph74%29.74 "Hg10 mi
8:58 PM69 °FPassing clouds.2 mph78%29.71 "Hg10 mi
7:58 PM76 °FSunny.2 mph59%29.70 "Hg10 mi
6:58 PM81 °FSunny.3 mph49%29.69 "Hg10 mi
5:58 PM84 °FSunny.7 mph41%29.69 "Hg10 mi
4:58 PM85 °FSunny.7 mph36%29.68 "Hg10 mi
3:58 PM86 °FSunny.8 mph37%29.68 "Hg10 mi
2:58 PM86 °FSunny.8 mph40%29.69 "Hg10 mi
1:58 PM85 °FSunny.7 mph44%29.70 "Hg10 mi
12:58 PM83 °FSunny.7 mph54%29.71 "Hg10 mi
11:58 AM80 °FSunny.6 mph65%29.73 "Hg10 mi
10:58 AM76 °FSunny.6 mph73%29.74 "Hg5 mi
9:58 AM72 °FScattered clouds.5 mph83%29.74 "Hg10 mi
9:03 AM68 °FLow clouds.5 mph94%29.74 "Hg10 mi
8:58 AM68 °FLow clouds.5 mph94%29.74 "Hg10 mi
7:58 AM65 °FLow clouds.6 mph99%29.73 "Hg8 mi
Weather by CustomWeather, © 2015

See weather overviewHow to use our weather pages